Great Bend, KS

11:36 PM CST on January 20, 2017 (GMT -0600)
Great Bend

Weather History for KGBD - September, 2013

Change the Weather History Date:

Sunday, September 22, 2013

  Actual Average Record
Temperature  
Mean Temperature 70 °F -  
Max Temperature 82 °F 78 °F 98 °F (1980)
Min Temperature 57 °F 53 °F 35 °F (1951)
Cooling Degree Days 4    
Growing Degree Days 20 (Base 50)    
Moisture  
Dew Point 47 °F    
Average Humidity 48    
Maximum Humidity 67    
Minimum Humidity 30    
Precipitation  
Precipitation 0.00 in - - ()
Sea Level Pressure  
Sea Level Pressure 29.83 in    
Wind  
Wind Speed 15 mph (SSE)    
Max Wind Speed 30 mph    
Max Gust Speed 38 mph    
Visibility 10 miles    
Events      
Averages and records for this station are not official NWS values.
T = Trace of Precipitation, MM = Missing Value Source: NWS Daily Summary

Daily Weather History Graph

Daily Weather History Graph

Search for Another Location

Airport or City:

Trip Planner

Search our weather history database for the weather conditions in past years. The results will help you decide how hot, cold, wet, or windy it might be!

Date:

Astronomy

Sep. 22, 2013 Rise Set
Actual Time 7:23 AM CDT 7:31 PM CDT
Civil Twilight 6:57 AM CDT 7:58 PM CDT
Nautical Twilight 6:26 AM CDT 8:29 PM CDT
Astronomical Twilight 5:54 AM CDT 9:00 PM CDT
Moon 9:26 PM CDT (9/22) 10:42 AM CDT (9/22)
Length of Visible Light 13h 01m
Length of Day
12h 08m
Waning Gibbous, 88% of the Moon is Illuminated
Sep 22
Waning Gibbous
Sep 26
Last Quarter
Oct 4
New
Oct 11
First Quarter
Oct 18
Full

Hourly Weather History & Observations

Time (CDT) Temp. Dew Point Humidity Pressure Visibility Wind Dir Wind Speed Gust Speed Precip Events Conditions
12:15 AM 64.4 °F 46.4 °F 52% 29.90 in 10.0 mi South 11.5 mph - N/A   Clear
12:35 AM 62.6 °F 46.4 °F 55% 29.90 in 10.0 mi South 9.2 mph - N/A   Clear
12:55 AM 60.8 °F 46.4 °F 59% 29.90 in 10.0 mi South 10.4 mph - N/A   Clear
1:15 AM 60.8 °F 46.4 °F 59% 29.89 in 10.0 mi South 11.5 mph - N/A   Clear
1:35 AM 60.8 °F 46.4 °F 59% 29.89 in 10.0 mi South 10.4 mph - N/A   Clear
1:55 AM 59.0 °F 46.4 °F 63% 29.89 in 10.0 mi SSE 8.1 mph - N/A   Clear
2:15 AM 59.0 °F 46.4 °F 63% 29.89 in 10.0 mi South 9.2 mph - N/A   Clear
2:35 AM 57.2 °F 46.4 °F 67% 29.89 in 10.0 mi South 9.2 mph - N/A   Clear
2:55 AM 57.2 °F 46.4 °F 67% 29.89 in 10.0 mi South 9.2 mph - N/A   Clear
3:15 AM 57.2 °F 46.4 °F 67% 29.89 in 10.0 mi South 9.2 mph - N/A   Clear
3:35 AM 57.2 °F 46.4 °F 67% 29.88 in 10.0 mi South 10.4 mph - N/A   Clear
3:55 AM 57.2 °F 46.4 °F 67% 29.88 in 10.0 mi South 11.5 mph - N/A   Clear
4:15 AM 57.2 °F 46.4 °F 67% 29.88 in 10.0 mi South 12.7 mph - N/A   Clear
4:35 AM 57.2 °F 46.4 °F 67% 29.88 in 10.0 mi South 11.5 mph - N/A   Clear
4:55 AM 57.2 °F 46.4 °F 67% 29.88 in 10.0 mi South 11.5 mph - N/A   Clear
5:15 AM 57.2 °F 46.4 °F 67% 29.88 in 10.0 mi South 11.5 mph - N/A   Clear
5:35 AM 57.2 °F 46.4 °F 67% 29.88 in 10.0 mi South 12.7 mph - N/A   Clear
5:55 AM 57.2 °F 46.4 °F 67% 29.88 in 10.0 mi South 12.7 mph - N/A   Clear
6:15 AM 57.2 °F 46.4 °F 67% 29.88 in 10.0 mi South 13.8 mph - N/A   Clear
6:35 AM 59.0 °F 46.4 °F 63% 29.88 in 10.0 mi South 13.8 mph - N/A   Clear
6:55 AM 59.0 °F 46.4 °F 63% 29.88 in 10.0 mi South 13.8 mph - N/A   Clear
7:15 AM 59.0 °F 46.4 °F 63% 29.88 in 10.0 mi South 16.1 mph - N/A   Clear
7:35 AM 60.8 °F 46.4 °F 59% 29.88 in 10.0 mi South 15.0 mph - N/A   Clear
7:55 AM 60.8 °F 46.4 °F 59% 29.89 in 10.0 mi South 15.0 mph 20.7 mph N/A   Clear
8:15 AM 60.8 °F 46.4 °F 59% 29.89 in 10.0 mi South 13.8 mph - N/A   Clear
8:35 AM 62.6 °F 46.4 °F 55% 29.89 in 10.0 mi South 13.8 mph 20.7 mph N/A   Clear
8:55 AM 64.4 °F 46.4 °F 52% 29.90 in 10.0 mi South 18.4 mph 24.2 mph N/A   Clear
9:15 AM 66.2 °F 46.4 °F 49% 29.90 in 10.0 mi South 17.3 mph - N/A   Clear
9:35 AM 68.0 °F 48.2 °F 49% 29.89 in 10.0 mi South 18.4 mph 25.3 mph N/A   Clear
9:55 AM 69.8 °F 48.2 °F 46% 29.90 in 10.0 mi South 17.3 mph 28.8 mph N/A   Clear
10:15 AM 71.6 °F 46.4 °F 41% 29.89 in 10.0 mi South 23.0 mph 35.7 mph N/A   Clear
10:35 AM 71.6 °F 46.4 °F 41% 29.89 in 10.0 mi South 26.5 mph 34.5 mph N/A   Clear
10:55 AM 73.4 °F 48.2 °F 41% 29.89 in 10.0 mi South 24.2 mph 34.5 mph N/A   Clear
11:15 AM 75.2 °F 48.2 °F 38% 29.88 in 10.0 mi SSE 26.5 mph 34.5 mph N/A   Clear
11:35 AM 75.2 °F 48.2 °F 38% 29.88 in 10.0 mi South 23.0 mph 32.2 mph N/A   Clear
11:55 AM 75.2 °F 48.2 °F 38% 29.87 in 10.0 mi SSE 25.3 mph 31.1 mph N/A   Clear
12:15 PM 77.0 °F 48.2 °F 36% 29.86 in 10.0 mi South 21.9 mph 32.2 mph N/A   Clear
12:35 PM 78.8 °F 48.2 °F 34% 29.85 in 10.0 mi South 25.3 mph 34.5 mph N/A   Clear
12:55 PM 78.8 °F 48.2 °F 34% 29.84 in 10.0 mi South 25.3 mph 31.1 mph N/A   Clear
1:15 PM 80.6 °F 48.2 °F 32% 29.83 in 10.0 mi South 29.9 mph 34.5 mph N/A   Clear
1:35 PM 80.6 °F 48.2 °F 32% 29.83 in 10.0 mi South 24.2 mph 33.4 mph N/A   Clear
1:55 PM 80.6 °F 48.2 °F 32% 29.82 in 10.0 mi South 24.2 mph 33.4 mph N/A   Clear
2:15 PM 80.6 °F 48.2 °F 32% 29.81 in 10.0 mi South 21.9 mph 28.8 mph N/A   Clear
2:35 PM 80.6 °F 48.2 °F 32% 29.80 in 10.0 mi South 24.2 mph 29.9 mph N/A   Clear
2:55 PM 82.4 °F 48.2 °F 30% 29.80 in 10.0 mi SSE 23.0 mph 32.2 mph N/A   Clear
3:15 PM 82.4 °F 48.2 °F 30% 29.79 in 10.0 mi SSE 26.5 mph 33.4 mph N/A   Clear
3:35 PM 82.4 °F 48.2 °F 30% 29.78 in 10.0 mi SSE 24.2 mph 34.5 mph N/A   Clear
3:55 PM 82.4 °F 50.0 °F 32% 29.77 in 10.0 mi SSE 21.9 mph 34.5 mph N/A   Clear
4:15 PM 82.4 °F 50.0 °F 32% 29.76 in 10.0 mi SSE 24.2 mph 38.0 mph N/A   Clear
4:35 PM 82.4 °F 48.2 °F 30% 29.76 in 10.0 mi SSE 25.3 mph 33.4 mph N/A   Clear
4:55 PM 82.4 °F 48.2 °F 30% 29.75 in 10.0 mi SSE 24.2 mph 31.1 mph N/A   Clear
5:15 PM 80.6 °F 48.2 °F 32% 29.75 in 10.0 mi SSE 24.2 mph 29.9 mph N/A   Clear
5:35 PM 80.6 °F 48.2 °F 32% 29.75 in 10.0 mi SSE 21.9 mph 35.7 mph N/A   Clear
5:55 PM 80.6 °F 48.2 °F 32% 29.75 in 10.0 mi SSE 26.5 mph 33.4 mph N/A   Clear
6:15 PM 80.6 °F 48.2 °F 32% 29.75 in 10.0 mi SSE 21.9 mph 28.8 mph N/A   Clear
6:35 PM 78.8 °F 48.2 °F 34% 29.75 in 10.0 mi SSE 20.7 mph 27.6 mph N/A   Clear
6:55 PM 77.0 °F 48.2 °F 36% 29.74 in 10.0 mi SSE 24.2 mph - N/A   Clear
7:15 PM 75.2 °F 48.2 °F 38% 29.74 in 10.0 mi SSE 20.7 mph 25.3 mph N/A   Clear
7:35 PM 73.4 °F 48.2 °F 41% 29.74 in 10.0 mi SSE 15.0 mph - N/A   Clear
7:55 PM 71.6 °F 48.2 °F 43% 29.74 in 10.0 mi SSE 16.1 mph - N/A   Clear
8:15 PM 71.6 °F 48.2 °F 43% 29.74 in 10.0 mi SSE 16.1 mph 21.9 mph N/A   Clear
8:35 PM 69.8 °F 48.2 °F 46% 29.74 in 10.0 mi SSE 18.4 mph 25.3 mph N/A   Clear
8:55 PM 69.8 °F 48.2 °F 46% 29.75 in 10.0 mi SSE 17.3 mph - N/A   Clear
9:15 PM 68.0 °F 48.2 °F 49% 29.75 in 10.0 mi SE 13.8 mph - N/A   Clear
9:35 PM 66.2 °F 48.2 °F 52% 29.76 in 10.0 mi SSE 15.0 mph - N/A   Clear
9:55 PM 66.2 °F 46.4 °F 49% 29.76 in 10.0 mi SSE 16.1 mph 20.7 mph N/A   Clear
10:15 PM 64.4 °F 46.4 °F 52% 29.77 in 10.0 mi SSE 12.7 mph - N/A   Clear
10:35 PM 64.4 °F 46.4 °F 52% 29.77 in 10.0 mi SSE 11.5 mph - N/A   Clear
10:55 PM 64.4 °F 46.4 °F 52% 29.77 in 10.0 mi SSE 11.5 mph - N/A   Clear
11:15 PM 62.6 °F 46.4 °F 55% 29.77 in 10.0 mi SSE 11.5 mph - N/A   Clear
11:35 PM 62.6 °F 46.4 °F 55% 29.77 in 10.0 mi SSE 13.8 mph - N/A   Clear
11:55 PM 62.6 °F 46.4 °F 55% 29.77 in 10.0 mi SSE 15.0 mph - N/A   Clear